This demonstration page uses our WeatherBlox Daily Observations layout. Learn more.

Left ArrowRight Arrow

Hourly Observations for August 28, 2021

Temp ( °F °C ) Dew Point ( °F °C ) Humidity (%) Winds ( mph kmh ) Pressure ( in mb ) Visibility ( mi km ) Precip ( " mm )
12:53 am 00:53 Clear with Smoke 80 26.7 36 2.2 20 20 NNW 3 6 29.68 1005 8 13 0.00 0.00
1:53 am 01:53 Clear with Smoke 83 28.3 37 2.8 19 19 NNW 6 9 29.67 1005 7 11 0.00 0.00
2:53 am 02:53 Hazy 83 28.3 39 3.9 21 21 NNW 8 13 29.67 1005 6 10 0.00 0.00
3:53 am 03:53 Hazy 83 28.3 40 4.4 22 22 NNW 7 11 29.68 1005 5 8 0.00 0.00
4:53 am 04:53 Hazy 83 28.3 41 5 23 23 NNW 10 17 29.68 1005 5 8 0.00 0.00
5:53 am 05:53 Cloudy with Haze 82 27.8 41 5 23 23 NNW 8 13 29.70 1006 4 6 0.00 0.00
6:53 am 06:53 Cloudy with Haze 82 27.8 41 5 23 23 N 8 13 29.71 1006 3 5 0.00 0.00
7:53 am 07:53 Mostly Cloudy with Haze 83 28.3 40 4.4 22 22 N 10 17 29.73 1007 4 6 0.00 0.00
8:53 am 08:53 Hazy 85 29.4 39 3.9 20 20 N 10 17 29.73 1007 5 8 0.00 0.00
9:53 am 09:53 Hazy 88 31.1 37 2.8 16 16 N 13 20 29.73 1007 6 10 0.00 0.00
10:53 am 10:53 Partly Cloudy with Smoke 92 33.3 36 2.2 14 14 N 10 17 29.73 1007 8 13 0.00 0.00
11:53 am 11:53 Sunny with Smoke 96 35.6 35 1.7 12 12 N 9 15 29.72 1006 7 11 0.00 0.00
12:53 pm 12:53 Hazy 98 36.7 34 1.1 11 11 VRB 6 9 29.70 1006 6 10 0.00 0.00
1:53 pm 13:53 Hazy 100 37.8 33 0.6 10 10 Calm 29.69 1006 5 8 0.00 0.00
2:53 pm 14:53 Cloudy with Haze 102 38.9 32 0 9 9 Calm 29.68 1005 4 6 0.00 0.00
3:21 pm 15:21 Cloudy with Haze 102 38.9 31 -0.6 8 8 S 3 6 29.65 1004 3 5 0.00 0.00
3:53 pm 15:53 Cloudy with Haze 102 38.9 32 0 9 9 SSW 6 9 29.66 1005 3 5 0.00 0.00
4:53 pm 16:53 Cloudy with Haze 103 39.4 32 0 8 8 S 6 9 29.65 1004 3 5 0.00 0.00
5:25 pm 17:25 Cloudy with Haze 102 38.9 35 1.7 10 10 SSE 9 15 29.64 1004 3 5 0.00 0.00
5:53 pm 17:53 Cloudy with Haze 101 38.3 35 1.7 10 10 SSE 7 11 29.65 1004 3 5 0.00 0.00
6:53 pm 18:53 Cloudy with Haze 97 36.1 39 3.9 13 13 S 6 9 29.65 1004 3 5 0.00 0.00
7:53 pm 19:53 Cloudy with Haze 92 33.3 39 3.9 16 16 Calm 29.65 1004 3 5 0.00 0.00
8:53 pm 20:53 Cloudy with Haze 83 28.3 39 3.9 21 21 undefined N/A 29.68 1005 5 8 0.00 0.00
9:53 pm 21:53 Cloudy with Haze 82 27.8 41 5 23 23 E 3 6 29.70 1006 5 8 0.00 0.00
10:53 pm 22:53 Cloudy with Haze 78 25.6 42 5.6 28 28 E 3 6 29.70 1006 4 6 0.00 0.00
11:53 pm 23:53 Cloudy with Haze 80 26.7 40 4.4 24 24 N 7 11 29.72 1006 4 6 0.00 0.00

Powered by AerisWeather